Weather History for KOQT - September, 2012

Change the Weather History Date:

Friday, September 28, 2012

  Actual Average (KTYS) Record (KTYS)
Temperature  
Mean Temperature 72 °F 66 °F  
Max Temperature 81 °F 77 °F 93 °F (1939)
Min Temperature 63 °F 55 °F 37 °F (1985)
Degree Days  
Heating Degree Days 0 2  
Month to date heating degree days 17  
Since 1 July heating degree days 17  
Cooling Degree Days 6 3  
Month to date cooling degree days 199  
Year to date cooling degree days 1480  
Growing Degree Days 22 (Base 50)    
Moisture  
Dew Point 64 °F    
Average Humidity 84    
Maximum Humidity 93    
Minimum Humidity 60    
Precipitation  
Precipitation 0.39 in 0.11 in 1.78 in (1872)
Month to date precipitation 3.02  
Year to date precipitation 36.62  
Snow  
Snow 0.00 in 0.00 in - ()
Month to date snowfall 0.0  
Since 1 July snowfall 0.0  
Since 1 September snowfall 0.0  
Snow Depth -    
Sea Level Pressure  
Sea Level Pressure 30.07 in    
Wind  
Wind Speed 1 mph (WNW)    
Max Wind Speed 10 mph    
Max Gust Speed 21 mph    
Visibility 8 miles    
Events Rain    
T = Trace of Precipitation, MM = Missing Value Source: NWS Daily Summary

Daily Weather History Graph

Daily Weather History Graph

Search for Another Location

Airport or City:

Trip Planner

Search our weather history database for the weather conditions in past years. The results will help you decide how hot, cold, wet, or windy it might be!

Date:

Astronomy

Sep. 28, 2012 Rise Set
Actual Time 7:29 AM EDT 7:24 PM EDT
Civil Twilight 7:04 AM EDT 7:49 PM EDT
Nautical Twilight 6:34 AM EDT 8:19 PM EDT
Astronomical Twilight 6:04 AM EDT 8:49 PM EDT
Moon 6:25 PM EDT (9/28) 6:01 AM EDT (9/28)
Length of Visible Light 12h 45m
Length of Day
11h 54m
Waxing Gibbous, 98% of the Moon is Illuminated
Sep 28
Waxing Gibbous
Sep 29
Full
Oct 8
Last Quarter
Oct 15
New
Oct 21
First Quarter

Hourly Weather History & Observations

Time (EDT) Temp. Heat Index Dew Point Humidity Pressure Visibility Wind Dir Wind Speed Gust Speed Precip Events Conditions
12:53 AM 64.9 °F - 63.0 °F 93% 30.12 in 8.0 mi Calm Calm - N/A   Clear
1:53 AM 64.0 °F - 62.1 °F 93% 30.11 in 8.0 mi Calm Calm - N/A   Clear
2:53 AM 64.0 °F - 61.0 °F 90% 30.10 in 7.0 mi Calm Calm - N/A   Clear
3:53 AM 64.0 °F - 61.0 °F 90% 30.09 in 8.0 mi Calm Calm - N/A   Clear
4:53 AM 63.0 °F - 61.0 °F 93% 30.09 in 8.0 mi Calm Calm - N/A   Scattered Clouds
5:53 AM 63.0 °F - 60.1 °F 90% 30.09 in 8.0 mi Calm Calm - N/A   Mostly Cloudy
6:53 AM 63.0 °F - 61.0 °F 93% 30.09 in 8.0 mi Calm Calm - N/A   Overcast
7:53 AM 64.0 °F - 61.0 °F 90% 30.09 in 7.0 mi Calm Calm - N/A   Mostly Cloudy
8:53 AM 66.0 °F - 62.1 °F 87% 30.11 in 8.0 mi Calm Calm - N/A   Mostly Cloudy
9:53 AM 71.1 °F - 64.9 °F 81% 30.11 in 10.0 mi Calm Calm - 0.00 in   Clear
10:53 AM 73.0 °F - 64.0 °F 73% 30.12 in 10.0 mi WSW 4.6 mph - N/A   Partly Cloudy
11:53 AM 77.0 °F - 64.0 °F 64% 30.10 in 10.0 mi Variable 5.8 mph - N/A   Clear
12:53 PM 79.0 °F - 64.0 °F 60% 30.09 in 10.0 mi West 5.8 mph - N/A   Clear
1:53 PM 80.1 °F 81.9 °F 64.9 °F 60% 30.06 in 10.0 mi Variable 3.5 mph - N/A   Scattered Clouds
2:23 PM 71.6 °F - 66.2 °F 83% 30.11 in 1.8 mi NW 10.4 mph 20.7 mph 0.01 in Rain Heavy Rain
2:35 PM 66.2 °F - 62.6 °F 88% 30.11 in 0.5 mi Variable 3.5 mph - 0.22 in Rain Heavy Rain
2:47 PM 69.8 °F - 64.4 °F 83% 30.10 in 3.0 mi Calm Calm - 0.39 in Rain Light Rain
2:53 PM 70.0 °F - 66.0 °F 87% 30.07 in 10.0 mi Calm Calm - 0.39 in   Mostly Cloudy
3:53 PM 75.0 °F - 68.0 °F 79% 30.04 in 10.0 mi Calm Calm - N/A   Partly Cloudy
4:53 PM 73.9 °F - 66.9 °F 79% 30.02 in 10.0 mi Calm Calm - N/A   Clear
5:53 PM 75.0 °F - 68.0 °F 79% 30.01 in 10.0 mi East 3.5 mph - N/A   Partly Cloudy
6:53 PM 73.0 °F - 68.0 °F 84% 30.01 in 10.0 mi Calm Calm - N/A   Clear
7:53 PM 71.1 °F - 68.0 °F 90% 30.02 in 8.0 mi Calm Calm - N/A   Partly Cloudy
8:53 PM 69.1 °F - 66.9 °F 93% 30.03 in 6.0 mi Calm Calm - N/A   Mostly Cloudy
9:53 PM 69.1 °F - 66.9 °F 93% 30.03 in 7.0 mi Calm Calm - N/A   Overcast
10:53 PM 71.1 °F - 66.9 °F 87% 30.03 in 5.0 mi Calm Calm - N/A   Overcast
11:53 PM 69.1 °F - 66.0 °F 90% 30.02 in 5.0 mi Calm Calm - N/A   Overcast